Location: Kershaw
(34.5481°N, 80.5823°W)
Time: 18:59:38
(UTC+00:00)

deb Explorer IX - Pass Details

Date: 08 October 2022
Orbit: 533 x 1057 km, 38.8° (Epoch: 06 December)

Event Time Altitude Azimuth Distance (km) Brightness Sun altitude
Exits shadow 09:25:21 73° 128° (SE) 627 ? -24.8°
Drops below altitude 10° 09:29:51 10° 72° (ENE) 2,062 ? -23.9°
Sets 09:32:23 0° 71° (ENE) 3,064 ? -23.4°
